Regional Weather Roundup
Issued by NWS

Home | Current Version | Previous Version | Text Only | Print | Product List | Glossary Off
Versions: 1 2 3 4 5 6 7 8 9 10 11 12 13 14 15 16 17 18 19 20 21 22 23 24 25 26 27 28 29 30 31 32 33 34 35 36 37 38 39 40 41 42 43 44 45 46 47 48 49 50

000
ASUS43 KMKX 180500
RWRWI

WISCONSIN REGIONAL WEATHER ROUNDUP
NATIONAL WEATHER SERVICE MILWAUKEE/SULLIVAN WI
1200 AM CDT WED OCT 18 2017

NOTE: "FAIR" INDICATES FEW OR NO CLOUDS BELOW 12,000 FEET WITH NO
SIGNIFICANT WEATHER AND/OR OBSTRUCTIONS TO VISIBILITY.

WIZ001-002-006>008-014>016-023>028-180600-
NORTHWEST WISCONSIN

CITY           SKY/WX    TMP DP  RH WIND       PRES   REMARKS
SUPERIOR ARPT  CLEAR     42  40  92 CALM      29.83F
ASHLAND        CLEAR     52  43  71 SW5       29.86F
HAYWARD        CLEAR     54  44  69 S6        29.90F
SIREN          CLEAR     56  41  58 S7        29.88S
CUMBERLAND     CLEAR     50  41  71 S6        29.92S
RICE LAKE      CLEAR     53  44  71 SE6       29.93F
CHETEK         CLEAR     49  45  86 CALM      29.93S
LADYSMITH      CLEAR     53  45  73 S5        29.95F
EAU CLAIRE     NOT AVBL
MENOMONIE      CLEAR     52  45  77 E6        29.94S
NEW RICHMOND   NOT AVBL
OSCEOLA        CLEAR     55  44  66 S3        29.92F
$$

WIZ003>005-009-010-017-018-180600-
NORTH CENTRAL WISCONSIN

CITY           SKY/WX    TMP DP  RH WIND       PRES   REMARKS
MANITOWISH WTR CLEAR     49  45  83 S6        29.93F
ARBOR VITAE    CLEAR     52  45  77 S6        29.95F
WOODRUFF       CLEAR     52  45  77 S6        29.95F
RHINELANDER    CLEAR     54  45  71 SW7       29.97F
EAGLE RIVER    CLEAR     51  42  71 S3        29.95F
LAND O LAKES   CLEAR     48  42  80 CALM      29.97F
PHILLIPS       CLEAR     52  44  74 S6        29.93F
TOMAHAWK       CLEAR     47  43  85 CALM      29.97S
MEDFORD        CLEAR     47  43  85 S8        29.97F
MERRILL        CLEAR     40  40 100 CALM      29.98F
$$

WIZ029-030-035-036-043>047-180600-
CENTRAL WISCONSIN

CITY           SKY/WX    TMP DP  RH WIND       PRES   REMARKS
WAUSAU         CLEAR     51  45  79 S6        29.98S
MOSINEE        CLEAR     46  43  87 S8        30.01S
MARSHFIELD     CLEAR     53  43  68 S9        29.99S
STEVENS POINT  CLEAR     51  44  75 S8        30.01F
WAUPACA        CLEAR     53  45  73 S3        30.03S
WAUTOMA        CLEAR     43  41  93 CALM      30.04F
WISC RAPIDS    CLEAR     53  45  74 S7        30.02S
CAMP DOUGLAS   NOT AVBL
$$

WIZ011>013-019>022-031-037>040-048>050-180600-
NORTHEAST WISCONSIN

CITY           SKY/WX    TMP DP  RH WIND       PRES   REMARKS
ANTIGO         CLEAR     48  44  83 SW7       29.99F
SHAWANO        CLEAR     54  47  75 CALM      30.00S
OCONTO         CLEAR     54  47  78 SW5       30.00F
STURGEON BAY   CLEAR     54  46  74 S9        30.01F
GREEN BAY      CLEAR     56  48  74 SW8       30.02F
MANITOWOC      CLEAR     60  43  53 SW9       30.05S
APPLETON       CLEAR     55  41  58 SW14      30.02S
CLINTONVILLE   CLEAR     54  45  71 S7        30.01F
OSHKOSH        CLEAR     56  44  64 S14       30.04S
$$

WIZ032>034-041-042-053>061-180600-
SOUTHWEST WISCONSIN

CITY           SKY/WX    TMP DP  RH WIND       PRES   REMARKS
LA CROSSE      CLEAR     58  46  64 S8        30.00S
SPARTA         CLEAR     49  44  81 CALM      30.02S
VIROQUA        CLEAR     56  45  67 S7        30.04S
BOSCOBEL       CLEAR     47  43  86 CALM      30.05S
PRAIRIE DU CHI CLEAR     59  42  53 S5        30.04S
PLATTEVILLE    CLEAR     54  44  67 S10       30.08S
$$

WIZ056-057-062-063-064-067-068-180600-
SOUTH CENTRAL WISCONSIN

CITY           SKY/WX    TMP DP  RH WIND       PRES   REMARKS
REEDSBURG      CLEAR     55  43  65 S3        30.05S
BARABOO/DELLS  CLEAR     55  42  59 S9        30.05S
LONE ROCK      CLEAR     53  44  71 CALM      30.06S
MINERAL POINT  CLEAR     54  43  66 S8        30.08S
MADISON        CLEAR     56  43  61 S7        30.08S
MIDDLETON      CLEAR     58  42  55 SW6       30.08S
WATERTOWN      CLEAR     51  43  75 S6        30.09S
MONROE         CLEAR     52  41  66 S13       30.09S
JANESVILLE     CLEAR     54  41  62 S8        30.10S
$$

WIZ051-052-058>065-066-070>072-180600-
SOUTHEAST WISCONSIN

CITY           SKY/WX    TMP DP  RH WIND       PRES   REMARKS
MILWAUKEE      PTCLDY    58  41  53 SW9       30.11S
WAUKESHA       CLEAR     54  39  58 SW6       30.11F
MILWAUKEE/TIMM PTCLDY    54  37  54 SW6       30.11S
RACINE         CLEAR     53  42  66 S5        30.13S
BURLINGTON     CLEAR     53  43  68 SW5       30.12R
KENOSHA        CLEAR     50  40  68 SW3       30.12S
FOND DU LAC    CLEAR     58  40  51 S8        30.06S
SHEBOYGAN      CLEAR     52  44  74 S8        30.06F
WEST BEND      CLEAR     55  39  54 SW12      30.08S
JUNEAU         CLEAR     54  41  61 S8        30.09S
$$

LSZ147-162-180600-
LAKE SUPERIOR

STATION/POSITION TIME  TEMP    WIND        PRES    WAVE
                       AIR SEA DIR/SP/G            HT/PER
                 (UTC) (F)     (DEG/KT/KT) (MB)    (FT/S)
W MID LAKE BUOY  0350   57 53              1010.8F   1
DEVILS ISLAND    0400   62     190/ 11/ 14 1010.8F
SAXON HARBOR     0440   60     180/  7/ 12 1010.8F
$$

LMZ867-665-643>646-180600-
LAKE MICHIGAN

STATION/POSITION TIME  TEMP    WIND        PRES    WAVE
                       AIR SEA DIR/SP/G            HT/PER
                 (UTC) (F)     (DEG/KT/KT) (MB)    (FT/S)
S GREEN BAY BUOY 0400   59 58  200/ 10/ 12 1015.8F
N MID LAKE BUOY  0350   60 59  180/ 16/ 17 1016.6F   3/ 6
NORTHPORT PIER   0440   57     180/  4/  9 1015.6F
KEWAUNEE LAKESHO 0430   59     240/  6/ 12 1015.9F
SHEBOYGAN LAKESH 0400   59     200/ 11/ 12 1017.8S
PORT WASHINGTON  0440   56     220/  2/  6 1019.3F
MILWAUKEE LAKESH 0430   60     220/  8/ 10   N/A
S MID LAKE BUOY  0350   63 61  210/ 17/ 21 1020.2R   3/ 4
KENOSHA   LAKESH 0400   58     210/  5/  7 1020.0
$$

TC  - TEMPERATURE IN CELSIUS
VSB - VISIBILITY IN STATUTE MILES
WCI - WIND CHILL INDEX
HX  - HEAT INDEX





USA.gov is the U.S. government's official web portal to all federal, state and local government web resources and services.